Location: *
(1.3500°S, 147.5000°W)
Time: 13:34:27
(UTC+00:00)

Cosmos 1140 Rocket - Pass Details

Date: 07 April 2020
Orbit: 745 x 767 km, 74.1° (Epoch: 04 June)

Event Time Altitude Azimuth Distance (km) Brightness Sun altitude
Rises 04:30:10 0° 176° (S) 3,232 6.6 -9.6°
Reaches altitude 10° 04:32:45 10° 166° (SSE) 2,302 5.8 -10.2°
Maximum altitude 04:37:26 34° 103° (ESE) 1,248 4.1 -11.4°
Drops below altitude 10° 04:42:05 10° 39° (NE) 2,282 5.7 -12.6°
Sets 04:44:37 0° 30° (NNE) 3,200 6.5 -13.2°
